Location: ???????
(55.4362°N, 38.1183°E)
Time: 01:06:43
(UTC+00:00)

USA 281 - Visible Passes

Search period start: 24 October 2021 00:00
Search period end: 03 November 2021 00:00
Orbit: 1078 x 1081 km, 106.0° (Epoch: 15 October)

Date Brightness Start Highest point End Pass type
(mag) Time Alt. Az. Time Alt. Az. Time Alt. Az.
24 Oct 5.4 00:52:41 10° NE 00:56:32 17° N 01:00:23 10° NNW visible
24 Oct 4.9 02:34:00 10° E 02:39:14 26° NNE 02:44:28 10° NNW visible
24 Oct 5.4 20:35:09 10° NNE 20:36:34 18° NNE 20:36:34 18° NNE visible
24 Oct 5.1 22:20:01 10° NNE 22:23:26 23° N 22:23:26 23° N visible
25 Oct 5.3 00:04:07 10° NNE 00:07:58 17° N 00:10:17 14° NNW visible
25 Oct 5.2 01:46:02 10° ENE 01:50:27 20° NNE 01:54:53 10° NNW visible
25 Oct 4.4 03:27:33 10° ESE 03:33:33 40° NE 03:39:34 10° NNW visible
25 Oct 5.6 19:45:27 10° NNE 19:45:42 11° NNE 19:45:42 11° NNE visible
25 Oct 5.2 21:30:15 10° NNE 21:32:33 22° NNE 21:32:33 22° NNE visible
25 Oct 5.1 23:14:56 10° NNE 23:19:21 20° NNW 23:19:25 20° NNW visible
26 Oct 5.3 00:57:59 10° NE 01:01:51 17° N 01:05:42 10° NNW visible
26 Oct 4.9 02:39:18 10° E 02:44:32 26° NNE 02:49:47 10° NNW visible
26 Oct 5.4 20:40:28 10° NNE 20:41:41 16° NNE 20:41:41 16° NNE visible
26 Oct 5.1 22:25:20 10° NNE 22:28:33 22° N 22:28:33 22° N visible
27 Oct 5.2 00:09:25 10° NNE 00:13:17 17° N 00:15:24 14° NNW visible
27 Oct 5.2 01:51:20 10° ENE 01:55:46 20° NNE 02:00:12 10° NNW visible
27 Oct 4.4 03:32:52 10° ESE 03:38:52 40° NE 03:44:53 10° NNW visible
27 Oct 5.7 19:50:47 10° NNE 19:50:49 10° NNE 19:50:49 10° NNE visible
27 Oct 5.3 21:35:34 10° NNE 21:37:41 20° NNE 21:37:41 20° NNE visible
27 Oct 5.1 23:20:15 10° NNE 23:24:32 20° NNW 23:24:32 20° NNW visible
28 Oct 5.3 01:03:17 10° NE 01:07:09 17° N 01:11:01 10° NNW visible
28 Oct 4.9 02:44:36 10° E 02:49:51 26° NNE 02:55:06 10° NNW visible
28 Oct 5.5 20:45:47 10° NNE 20:46:49 15° NNE 20:46:49 15° NNE visible
28 Oct 5.1 22:30:39 10° NNE 22:33:41 22° N 22:33:41 22° N visible
29 Oct 5.2 00:14:44 10° NNE 00:18:35 17° N 00:20:32 15° NNW visible
29 Oct 5.2 01:56:38 10° ENE 02:01:05 20° NNE 02:05:31 10° NNW visible
29 Oct 4.4 03:38:10 10° ESE 03:44:10 40° NE 03:50:12 10° NNW visible
29 Oct 5.3 21:40:54 10° NNE 21:42:49 19° NNE 21:42:49 19° NNE visible
29 Oct 5.1 23:25:33 10° NNE 23:29:41 19° NNW 23:29:41 19° NNW visible
30 Oct 5.3 01:08:35 10° NE 01:12:28 17° N 01:16:19 10° NNW visible
30 Oct 4.9 02:49:55 10° E 02:55:10 27° NNE 03:00:26 10° NNW visible
30 Oct 5.6 20:51:06 10° NNE 20:51:58 14° NNE 20:51:58 14° NNE visible
30 Oct 5.2 22:35:58 10° NNE 22:38:50 21° N 22:38:50 21° N visible
31 Oct 5.2 00:20:03 10° NNE 00:23:54 17° N 00:25:41 15° NNW visible
31 Oct 5.2 02:01:56 10° ENE 02:06:23 20° NNE 02:10:50 10° NNW visible
31 Oct 4.3 03:43:28 10° ESE 03:49:29 40° NE 03:55:31 10° NNW visible
31 Oct 5.4 21:46:13 10° NNE 21:47:59 19° NNE 21:47:59 19° NNE visible
31 Oct 5.1 23:30:52 10° NNE 23:34:50 19° NNW 23:34:50 19° NNW visible
01 Nov 5.3 01:13:54 10° NE 01:17:46 17° N 01:21:37 10° NNW visible
01 Nov 4.9 02:55:12 10° E 03:00:28 27° NNE 03:05:45 10° NNW visible
01 Nov 5.6 20:56:25 10° NNE 20:57:08 14° NNE 20:57:08 14° NNE visible
01 Nov 5.2 22:41:17 10° NNE 22:44:00 21° N 22:44:00 21° N visible
02 Nov 5.2 00:25:21 10° NNE 00:29:12 17° N 00:30:51 15° NNW visible
02 Nov 5.2 02:07:14 10° ENE 02:11:41 20° NNE 02:16:09 10° NNW visible
02 Nov 4.3 03:48:47 10° ESE 03:54:48 40° NE 04:00:50 10° NNW visible
02 Nov 5.4 21:51:32 10° NNE 21:53:09 18° NNE 21:53:09 18° NNE visible
02 Nov 5.1 23:36:11 10° NNE 23:40:01 19° N 23:40:01 19° N visible
